User: anonymous   Login
Location: Unspecified
(0.0000°N, 0.0000°E)
Time: 19:22:06
(UTC+00:00)
Language:

STARLINK-32898 - Orbit

View from above orbital plane
View from above orbital plane
View from above satellite
View from above satellite

Ground track
Ground track

The orbit is defined by the following mean orbital elements,

1 62998U          26145.19902201 +.00000000 +00000-0 +72902-3 0 00002
2 62998  42.9981  71.4824 0001163 209.6908 150.3878 15.27562300    03
Epoch (UTC): 25 May 2026 04:46:35
Eccentricity: 0.0001163
inclination: 42.9981°
perigee height: 482 km
apogee height: 484 km
right ascension of ascending node: 71.4824°
argument of perigee: 209.6908°
revolutions per day: 15.27562300
mean anomaly at epoch: 150.3878°

The dashed part of the orbit path shows where the satellite is in the earth's shadow,  

DLR